• MPC Preparation (Info)

  • MPEC 2013-L70 : 2013 LV28

    The following Minor Planet Electronic Circular may be linked-to from your own Web pages, but must not otherwise be redistributed electronically.

    A form allowing access to any MPEC is at the bottom of this page.


    Read MPEC 2013-L69 Read MPEC 2013-L71


    M.P.E.C. 2013-L70                                Issued 2013 June 15, 18:38 UT
    
         The Minor Planet Electronic Circulars contain information on unusual
             minor planets and routine data on comets.  They are published
       on behalf of Commission 20 of the International Astronomical Union by the
              Minor Planet Center, Smithsonian Astrophysical Observatory,
                              Cambridge, MA 02138, U.S.A.
    
                 Prepared using the Tamkin Foundation Computer Network
    
                                  MPC@CFA.HARVARD.EDU
                URL https://www.minorplanetcenter.net/    ISSN 1523-6714
    
                                       2013 LV28
    
    Observations:
         K13L28V* C2013 06 10.41662 22 34 38.46 +04 29 05.3          21.2 VuEL070G96
         K13L28V  C2013 06 10.42617 22 34 38.28 +04 29 01.2          21.3 VuEL070G96
         K13L28V  C2013 06 10.43091 22 34 38.20 +04 28 59.5          21.5 VuEL070G96
         K13L28V  C2013 06 10.44536 22 34 37.95 +04 28 52.1          20.2 RtEL070H01
         K13L28V  C2013 06 10.44873 22 34 37.91 +04 28 51.0          20.7 VuEL070G96
         K13L28V  C2013 06 10.44895 22 34 37.87 +04 28 50.5          20.6 RtEL070H01
         K13L28V  C2013 06 10.45017 22 34 37.84 +04 28 50.0          20.8 VuEL070G96
         K13L28V  C2013 06 10.45204 22 34 37.83 +04 28 49.0          20.5 RtEL070H01
         K13L28V  C2013 06 10.45310 22 34 37.86 +04 28 49.1          21.2 VuEL070G96
         K13L28V  C2013 06 10.45557 22 34 37.75 +04 28 47.4          20.9 RtEL070H01
         K13L28V  C2013 06 11.14431922 34 26.64 +04 23 33.6          21.3 VqEL070K91
         K13L28V  C2013 06 11.14795422 34 26.57 +04 23 32.0          21.9 VqEL070K91
         K13L28V  C2013 06 11.15158122 34 26.49 +04 23 30.3          21.3 VqEL070K91
         K13L28V  C2013 06 12.41699 22 34 03.32 +04 13 02.8          21.8 VuEL070G96
         K13L28V  C2013 06 12.42014 22 34 03.25 +04 13 01.0          21.6 VuEL070G96
         K13L28V  C2013 06 12.42330 22 34 03.18 +04 12 58.7          20.9 VuEL070G96
         K13L28V  C2013 06 12.42652 22 34 03.10 +04 12 58.3          21.7 VuEL070G96
         K13L28V  C2013 06 12.42967 22 34 03.07 +04 12 56.1          21.3 VuEL070G96
         K13L28V  C2013 06 13.37255 22 33 42.87 +04 04 52.8          21.4 VuEL070G96
         K13L28V  C2013 06 13.37707 22 33 42.73 +04 04 50.9          22.0 VuEL070G96
         K13L28V  C2013 06 13.38170 22 33 42.66 +04 04 49.1          21.2 VuEL070G96
         K13L28V  C2013 06 13.38635 22 33 42.55 +04 04 46.4          22.1 VuEL070G96
         K13L28V  C2013 06 14.44379 22 33 16.70 +03 55 21.3          20.1 VuEL070G96
         K13L28V  C2013 06 14.44788 22 33 16.56 +03 55 19.0          20.4 VuEL070G96
         K13L28V  C2013 06 14.45197 22 33 16.45 +03 55 17.0          20.6 VuEL070G96
         K13L28V  C2013 06 14.45607 22 33 16.34 +03 55 14.8          20.7 VuEL070G96
         K13L28V |C2013 06 15.35153 22 32 52.15 +03 47 06.1          21.2 VuEL070807
         K13L28V |C2013 06 15.35697 22 32 51.98 +03 47 03.5          21.0 VuEL070807
         K13L28V |C2013 06 15.36244 22 32 51.78 +03 47 00.2          21.1 VuEL070807
         K13L28V  C2013 06 15.43008 22 32 50.02 +03 46 12.5          20.7 VuEL070G96
         K13L28V  C2013 06 15.43772 22 32 49.77 +03 46 08.3          20.7 VuEL070G96
         K13L28V  C2013 06 15.44535 22 32 49.52 +03 46 03.9          20.7 VuEL070G96
         K13L28V  C2013 06 15.45300 22 32 49.30 +03 45 59.5          21.0 VuEL070G96
    
    Observer details:
    807 Cerro Tololo.  Observers T. Linder, R. Holmes.  0.41-m f/11
        Ritchey-Chretien + CCD.
    G96 Mt. Lemmon Survey.  Observers R. A. Kowalski, R. E. Hill, J. A. Johnson.
        Measurers A. Boattini, E. J. Christensen, A. R. Gibbs, A. D. Grauer,
        R. E. Hill, J. A. Johnson, R. A. Kowalski, S. M. Larson, R. H. McNaught,
        F. C. Shelly.  1.5-m reflector + CCD.
    H01 Magdalena Ridge Observatory, Socorro.  Observers W. H. Ryan, E. V. Ryan.
        Measurer W. H. Ryan.  2.4-m f/8.9 reflector + CCD.
    K91 Sutherland-LCOGT A.  Observers E. J. Christensen, S. M. Larson, T. Lister.
        Measurer T. Lister.  1.0-m f/8 Ritchey-Chretien + CCD.
    
    Orbital elements:
    2013 LV28                                                Earth MOID = 0.2903 AU
    Epoch 2013 Apr. 18.0 TT = JDT 2456400.5                 MPC
    M  22.65931              (2000.0)            P               Q
    n   0.53177412     Peri.   25.23141     -0.94117218     -0.21706594
    a   1.5088680      Node   139.36278     +0.20077885     -0.97566729
    e   0.6867990      Incl.   23.43292     +0.27181386     -0.03091477
    P   1.85           H   18.6           G   0.15           U   8
    Residuals in seconds of arc
    130610 G96  0.1-  0.2-    130611 K91  0.1-  0.4-    130614 G96  0.1+  0.0
    130610 G96  0.3-  0.0     130611 K91  0.2-  0.4-    130614 G96  0.3-  0.1-
    130610 G96  0.2-  0.5+    130612 G96  0.1-  0.3+    130614 G96  0.2-  0.1+
    130610 H01  0.3+  0.1-    130612 G96  0.1-  0.1+    130614 G96  0.1-  0.1+
    130610 G96  0.1+  0.2+    130612 G96  0.1-  0.6-    130615 807  0.1+  0.3-
    130610 H01  0.0   0.0     130612 G96  0.2-  0.6+    130615 807  0.1+  0.2+
    130610 G96  0.6-  0.1-    130612 G96  0.4+  0.0     130615 807  0.3-  0.1-
    130610 H01  0.3+  0.1-    130613 G96  0.1+  0.2-    130615 G96  0.2+  0.2-
    130610 G96  0.5+  0.3+    130613 G96  0.4-  0.2+    130615 G96  0.0   0.1-
    130610 H01  0.0   0.1-    130613 G96  0.3+  0.8+    130615 G96  0.1-  0.1-
    130611 K91  0.1-  0.5-    130613 G96  0.4+  0.6+    130615 G96  0.2+  0.2-
    
    Ephemeris:
    2013 LV28                a,e,i = 1.51, 0.69, 23                  q = 0.4726
    Date    TT    R. A. (2000) Decl.     Delta      r     Elong.  Phase     V
    2013 05 16    22 28 41.8 +06 19 31   1.0605  1.2524    74.4    51.0    21.1
    ...
    2013 05 31    22 34 58.7 +05 32 44   1.0369  1.4132    87.1    45.8    21.2
    ...
    2013 06 08    22 35 06.6 +04 46 47   1.0125  1.4930    94.8    42.6    21.2
    ...
    2013 06 14    22 33 27.6 +03 59 26   0.9912  1.5502   101.1    40.0    21.1
    2013 06 15    22 33 01.8 +03 50 19   0.9875  1.5595   102.2    39.5    21.1
    2013 06 16    22 32 33.1 +03 40 51   0.9838  1.5688   103.3    39.1    21.1
    ...
    2013 06 22    22 28 41.7 +02 35 52   0.9615  1.6232   110.3    36.0    21.0
    ...
    2013 06 30    22 20 49.0 +00 46 06   0.9339  1.6925   120.3    31.2    20.9
    ...
    2013 07 15    21 57 41.3 -03 52 18   0.9030  1.8131   141.6    20.4    20.7
    
    A. U. Tomatic                (C) Copyright 2013 MPC           M.P.E.C. 2013-L70
    

    Read MPEC 2013-L69 Read MPEC 2013-L71


    MPEC number:

    Enter an MPEC number in one of the following forms:

    • 1997-B01 (the full form)
    • J97B01 (the packed version of the full form)
    • B01 (the abbreviated form)